timestamp,surface_pressure_avg,surface_temp_avg,battery_voltage,lat,long
2021-02-20 00:09:01+00:00,239.2931,1.9,12.81,47.84626,-54.09684
2021-02-20 00:19:01+00:00,240.7281,1.88,12.57,47.84626,-54.09684
2021-02-20 00:29:01+00:00,239.2898,1.82,12.57,47.84626,-54.09684
2021-02-20 00:39:01+00:00,250.7864,1.8,12.57,47.84626,-54.09684
2021-02-20 00:49:01+00:00,261.4631,1.8,12.57,47.84626,-54.09684
2021-02-20 00:59:01+00:00,259.1681,1.8,12.57,47.84626,-54.09684
2021-02-20 01:09:01+00:00,251.5031,1.8,12.57,47.84626,-54.09684
2021-02-20 01:19:01+00:00,254.7364,1.79,12.57,47.84626,-54.09684
2021-02-20 01:29:01+00:00,257.4515,1.78,12.57,47.84626,-54.09684
2021-02-20 01:39:01+00:00,250.6414,1.7,12.57,47.84626,-54.09684
2021-02-20 01:49:01+00:00,251.4181,1.7,12.57,47.84626,-54.09684
2021-02-20 01:59:01+00:00,258.6214,1.7,12.57,47.84626,-54.09684
2021-02-20 02:09:01+00:00,262.343,1.7,12.57,47.84626,-54.09684
2021-02-20 02:19:01+00:00,259.313,1.7,12.57,47.84626,-54.09684
2021-02-20 02:29:01+00:00,268.0531,1.7,12.57,47.84626,-54.09684
2021-02-20 02:39:01+00:00,271.8064,1.7,12.57,47.84626,-54.09684
2021-02-20 02:49:01+00:00,272.1798,1.68,12.57,47.84626,-54.09684
2021-02-20 02:59:01+00:00,278.8347,1.68,12.57,47.84626,-54.09684
2021-02-20 03:09:01+00:00,293.953,1.65,12.57,47.84626,-54.09684
2021-02-20 03:19:01+00:00,294.5714,1.6,12.57,47.84626,-54.09684
2021-02-20 03:29:01+00:00,292.7447,1.53,12.57,47.84626,-54.09684
2021-02-20 03:39:01+00:00,303.1497,1.55,12.57,47.84626,-54.09684
2021-02-20 03:49:01+00:00,312.6929,1.58,12.57,47.84626,-54.09684
2021-02-20 03:59:01+00:00,304.9097,1.56,12.57,47.84626,-54.09684
2021-02-20 04:09:01+00:00,305.2997,1.53,12.57,47.84626,-54.09684
2021-02-20 04:19:01+00:00,309.6447,1.56,12.49,47.84626,-54.09684
2021-02-20 04:29:01+00:00,309.9363,1.55,12.49,47.84626,-54.09684
2021-02-20 04:39:01+00:00,312.1829,1.52,12.49,47.84626,-54.09684
2021-02-20 04:49:01+00:00,323.1397,1.53,12.49,47.84626,-54.09684
2021-02-20 04:59:01+00:00,325.2247,1.5,12.49,47.84626,-54.09684
2021-02-20 05:09:01+00:00,318.8947,1.5,12.49,47.84626,-54.09684
2021-02-20 05:19:01+00:00,319.998,1.5,12.49,47.84626,-54.09684
2021-02-20 05:29:01+00:00,325.1963,1.5,12.49,47.84626,-54.09684
2021-02-20 05:39:01+00:00,327.5247,1.5,12.49,47.84626,-54.09684
2021-02-20 05:49:01+00:00,323.2097,1.48,12.49,47.84626,-54.09684
2021-02-20 05:59:01+00:00,317.0397,1.4,12.49,47.84626,-54.09684
2021-02-20 06:09:01+00:00,320.0663,1.4,12.49,47.84626,-54.09684
2021-02-20 06:19:01+00:00,322.078,1.4,12.49,47.84626,-54.09684
2021-02-20 06:29:01+00:00,315.933,1.4,12.49,47.84626,-54.09684
2021-02-20 06:39:01+00:00,316.7914,1.39,12.49,47.84626,-54.09684
2021-02-20 06:49:01+00:00,318.8314,1.38,12.49,47.84626,-54.09684
2021-02-20 06:59:01+00:00,317.9896,1.34,12.49,47.84626,-54.09684
2021-02-20 07:09:01+00:00,314.5297,1.3,12.49,47.84626,-54.09684
2021-02-20 07:19:01+00:00,312.3247,1.3,12.41,47.84626,-54.09684
2021-02-20 07:29:01+00:00,306.9313,1.3,12.41,47.84626,-54.09684
2021-02-20 07:39:01+00:00,302.933,1.3,12.41,47.84626,-54.09684
2021-02-20 07:49:01+00:00,296.2646,1.3,12.41,47.84626,-54.09684
2021-02-20 07:59:01+00:00,292.6813,1.29,12.41,47.84626,-54.09684
2021-02-20 08:09:01+00:00,292.2697,1.2,12.41,47.84626,-54.09684
2021-02-20 08:19:01+00:00,283.6865,0.9,12.41,47.84626,-54.09684
2021-02-20 08:29:01+00:00,274.6146,0.79,12.41,47.84626,-54.09684
2021-02-20 08:39:01+00:00,274.6947,0.7,12.41,47.84626,-54.09684
2021-02-20 08:49:01+00:00,274.6497,0.7,12.41,47.84626,-54.09684
2021-02-20 08:59:01+00:00,270.9281,0.6,12.41,47.84626,-54.09684
2021-02-20 09:09:01+00:00,270.0214,0.6,12.41,47.84626,-54.09684
2021-02-20 09:19:01+00:00,260.3948,0.6,12.41,47.84626,-54.09684
2021-02-20 09:29:01+00:00,251.5131,0.62,12.41,47.84626,-54.09684
2021-02-20 09:39:01+00:00,245.6697,0.69,12.41,47.84626,-54.09684
2021-02-20 09:49:01+00:00,240.9631,0.5,12.41,47.84626,-54.09684
2021-02-20 09:59:01+00:00,232.0214,0.3,12.41,47.84626,-54.09684
2021-02-20 10:09:01+00:00,228.4865,0.29,12.41,47.84626,-54.09684
2021-02-20 10:19:01+00:00,226.7564,0.3,12.41,47.84626,-54.09684
2021-02-20 10:29:01+00:00,220.2098,0.4,12.41,47.84626,-54.09684
2021-02-20 10:39:01+00:00,216.3682,0.37,12.41,47.84626,-54.09684
2021-02-20 10:49:01+00:00,224.0481,0.3,12.41,47.84626,-54.09684
2021-02-20 10:59:01+00:00,236.8764,0.34,12.41,47.84626,-54.09684
2021-02-20 11:09:01+00:00,240.7764,0.35,12.41,47.84626,-54.09684
2021-02-20 11:19:01+00:00,239.0914,0.38,12.41,47.84626,-54.09684
2021-02-20 11:29:01+00:00,239.7264,0.54,12.41,47.84626,-54.09684
2021-02-20 11:39:01+00:00,240.4915,0.87,12.41,47.84626,-54.09684
2021-02-20 11:49:01+00:00,237.4531,1.01,12.41,47.84626,-54.09684
2021-02-20 11:59:01+00:00,236.2448,1.19,12.41,47.84626,-54.09684
2021-02-20 12:09:01+00:00,236.1714,1.3,12.41,47.84626,-54.09684
2021-02-20 12:19:01+00:00,238.5181,1.3,12.97,47.84626,-54.09684
2021-02-20 12:29:01+00:00,241.8581,1.33,12.97,47.84626,-54.09684
2021-02-20 12:39:01+00:00,247.7898,1.3,12.97,47.84626,-54.09684
2021-02-20 12:49:01+00:00,249.3248,1.34,12.97,47.84626,-54.09684
2021-02-20 12:59:01+00:00,245.5631,1.32,12.97,47.84626,-54.09684
2021-02-20 13:09:01+00:00,249.0681,1.2,12.97,47.84626,-54.09684
2021-02-20 13:19:01+00:00,257.9797,0.9,14.08,47.84626,-54.09684
2021-02-20 13:29:01+00:00,260.6313,0.7,14.08,47.84626,-54.09684
2021-02-20 13:39:01+00:00,258.4232,0.6,14.08,47.84626,-54.09684
2021-02-20 13:49:01+00:00,255.7764,0.5,14.08,47.84626,-54.09684
2021-02-20 13:59:01+00:00,254.983,0.4,14.08,47.84626,-54.09684
2021-02-20 14:09:01+00:00,254.1763,0.3,14.08,47.84626,-54.09684
2021-02-20 14:19:01+00:00,260.6614,0.3,14.48,47.84626,-54.09684
2021-02-20 14:29:01+00:00,267.1297,0.39,14.48,47.84626,-54.09684
2021-02-20 14:39:01+00:00,277.293,0.1,14.48,47.84626,-54.09684
2021-02-20 14:49:01+00:00,276.96299999999997,0.3,14.48,47.84626,-54.09684
2021-02-20 14:59:01+00:00,272.9497,0.19,14.48,47.84626,-54.09684
2021-02-20 15:09:01+00:00,284.9613,0.65,14.48,47.84626,-54.09684
2021-02-20 15:19:01+00:00,291.4581,0.7,14.56,47.84626,-54.09684
2021-02-20 15:29:01+00:00,284.3347,0.6,14.56,47.84626,-54.09684
2021-02-20 15:39:01+00:00,283.8231,0.85,14.56,47.84626,-54.09684
2021-02-20 15:49:01+00:00,294.663,0.83,14.56,47.84626,-54.09684
2021-02-20 15:59:01+00:00,289.643,0.7,14.56,47.84626,-54.09684
2021-02-20 16:09:01+00:00,288.293,0.6,14.56,47.84626,-54.09684
2021-02-20 16:19:01+00:00,289.233,0.6,14.64,47.84626,-54.09684
2021-02-20 16:29:01+00:00,290.5947,0.7,14.64,47.84626,-54.09684
2021-02-20 16:39:01+00:00,293.3747,0.75,14.64,47.84626,-54.09684
2021-02-20 16:49:01+00:00,311.823,0.8,14.64,47.84626,-54.09684
2021-02-20 16:59:01+00:00,314.8047,0.8,14.64,47.84626,-54.09684
2021-02-20 17:09:01+00:00,314.0029,0.7,14.64,47.84626,-54.09684
2021-02-20 17:19:01+00:00,320.6013,0.7,14.4,47.84626,-54.09684
2021-02-20 17:29:01+00:00,323.8513,1.0,14.4,47.84626,-54.09684
2021-02-20 17:39:01+00:00,312.0764,1.0,14.4,47.84626,-54.09684
2021-02-20 17:49:01+00:00,307.7513,0.8,14.4,47.84626,-54.09684
2021-02-20 17:59:01+00:00,315.903,0.8,14.4,47.84626,-54.09684
2021-02-20 18:09:01+00:00,312.0947,0.8,14.4,47.84626,-54.09684
2021-02-20 18:19:01+00:00,302.678,0.79,14.24,47.84626,-54.09684
2021-02-20 18:29:01+00:00,301.6514,0.77,14.24,47.84626,-54.09684
2021-02-20 18:39:01+00:00,308.4147,0.7,14.24,47.84626,-54.09684
2021-02-20 18:49:01+00:00,301.3331,0.7,14.24,47.84626,-54.09684
2021-02-20 18:59:01+00:00,307.8848,0.6,14.24,47.84626,-54.09684
2021-02-20 19:09:01+00:00,320.393,0.7,14.24,47.84626,-54.09684
2021-02-20 19:19:01+00:00,325.768,0.86,14.08,47.84626,-54.09684
2021-02-20 19:29:01+00:00,313.2313,0.8,14.08,47.84626,-54.09684
2021-02-20 19:39:01+00:00,309.5746,0.78,14.08,47.84626,-54.09684
2021-02-20 19:49:01+00:00,296.6313,0.78,14.08,47.84626,-54.09684
2021-02-20 19:59:01+00:00,273.613,0.88,14.08,47.84626,-54.09684
2021-02-20 20:09:01+00:00,267.0164,0.9,14.08,47.84626,-54.09684
2021-02-20 20:19:01+00:00,274.9664,0.89,13.76,47.84626,-54.09684
2021-02-20 20:29:01+00:00,271.1264,0.6,13.76,47.84626,-54.09684
2021-02-20 20:39:01+00:00,267.9265,0.7,13.76,47.84626,-54.09684
2021-02-20 20:49:01+00:00,279.9363,0.79,13.76,47.84626,-54.09684
2021-02-20 20:59:01+00:00,282.413,0.99,13.76,47.84626,-54.09684
2021-02-20 21:09:01+00:00,271.4997,0.9,13.76,47.84626,-54.09684
2021-02-20 21:19:01+00:00,267.0997,0.82,13.37,47.84626,-54.09684
2021-02-20 21:29:01+00:00,275.9164,0.7,13.37,47.84626,-54.09684
2021-02-20 21:39:01+00:00,270.7847,0.7,13.37,47.84626,-54.09684
2021-02-20 21:49:01+00:00,254.2831,0.8,13.37,47.84626,-54.09684
2021-02-20 21:59:01+00:00,237.8114,0.78,13.37,47.84626,-54.09684
2021-02-20 22:09:01+00:00,236.7748,0.81,13.37,47.84626,-54.09684
2021-02-20 22:19:01+00:00,241.898,0.9,12.97,47.84626,-54.09684
2021-02-20 22:29:01+00:00,255.5681,0.9,12.97,47.84626,-54.09684
2021-02-20 22:39:01+00:00,262.5331,0.98,12.97,47.84626,-54.09684
2021-02-20 22:49:01+00:00,260.2098,1.0,12.97,47.84626,-54.09684
2021-02-20 22:59:01+00:00,259.8231,0.9,12.97,47.84626,-54.09684
2021-02-20 23:09:01+00:00,264.2098,0.88,12.97,47.84626,-54.09684
2021-02-20 23:19:01+00:00,250.9814,0.9,12.65,47.84626,-54.09684
2021-02-20 23:29:01+00:00,240.8748,0.7,12.65,47.84626,-54.09684
2021-02-20 23:39:01+00:00,247.6248,0.7,12.65,47.84626,-54.09684
2021-02-20 23:49:01+00:00,248.3381,0.77,12.65,47.84626,-54.09684
2021-02-20 23:59:01+00:00,237.8664,0.79,12.65,47.84626,-54.09684
